Simultaneous Nadir Overpasses (SNOs) Predictions

Prediction of SNOs between NOAA-20 and METOP-B Satellite Orbit:

Table of predicted SNOs for the next 14.0 days since TLE Epoch: 7/1/2023
Index Date (NOAA-20) Time (NOAA-20) Lat,Lon (NOAA-20) SZA (NOAA-20 ) Date (METOP-B) Time (METOP-B) Lat,Lon (METOP-B) SZA (METOP-B ) Distance(km) Time Diff (sec)
1 07/14/2023 12:29:54 -73.62, 162.73 127.77 07/14/2023 12:31:01 -73.54, 165.49 128.02 87.04 67
2 07/14/2023 13:20:35 73.39, -29.44 51.98 07/14/2023 13:21:44 73.36, -27.59 51.83 58.92 69
3 07/14/2023 14:11:18 -73.32, 138.03 128.09 07/14/2023 14:12:28 -73.27, 139.53 128.25 48.43 70
4 07/14/2023 15:01:59 73.09, -54.15 51.66 07/14/2023 15:03:12 73.04, -53.64 51.55 17.75 73
5 07/14/2023 15:52:42 -73.03, 113.30 128.41 07/14/2023 15:53:55 -72.99, 113.59 128.48 10.16 73
6 07/14/2023 16:43:26 72.94, -79.21 51.51 07/14/2023 16:44:35 72.96, -79.14 51.50 2.92 69
7 07/14/2023 17:34:10 -72.93, 88.13 128.51 07/14/2023 17:35:18 -72.92, 88.09 128.53 1.84 68
8 07/14/2023 18:24:56 72.95,-104.60 51.52 07/14/2023 18:25:57 72.94,-104.53 51.49 2.47 61
9 07/14/2023 19:15:40 -72.93, 62.75 128.49 07/14/2023 19:16:39 -72.94, 62.81 128.50 2.23 59
10 07/14/2023 20:06:25 72.90,-129.87 51.48 07/14/2023 20:07:19 72.91,-129.92 51.48 2.03 54
11 07/14/2023 20:57:10 -72.94, 37.37 128.48 07/14/2023 20:58:01 -72.92, 37.42 128.51 2.59 51
12 07/14/2023 21:47:55 72.91,-155.25 51.50 07/14/2023 21:48:41 72.89,-155.32 51.47 2.95 46
13 07/14/2023 22:38:39 -72.89, 12.09 128.52 07/14/2023 22:39:23 -72.90, 12.03 128.52 2.17 44
14 07/14/2023 23:29:25 72.91, 179.36 51.51 07/14/2023 23:30:02 72.91, 179.40 51.50 1.23 37
15 07/15/2023 00:20:09 -72.90, -13.29 128.50 07/15/2023 00:20:44 -72.92, -13.26 128.49 3.09 35
16 07/15/2023 01:10:54 72.91, 153.98 51.53 07/15/2023 01:11:23 72.89, 154.01 51.49 3.02 29



Historial Predications of SNOs between NOAA-20 and METOP-B
